Regional Weather Roundup
Issued by NWS Grand Forks, ND

Home | Current Version | Previous Version | Text Only | Print | Product List | Glossary Off
Versions: 1 2 3 4 5 6 7 8 9 10 11 12 13 14 15 16 17 18 19 20 21 22 23 24 25 26 27 28 29 30 31 32 33 34 35 36 37 38 39 40 41 42 43 44 45 46 47 48 49 50

000
ASUS43 KFGF 292131
RWRFGF
PRAIRIE TO PINES  WEATHER ROUNDUP
NATIONAL WEATHER SERVICE EASTERN NORTH DAKOTA/GRAND FORKS ND
400 PM CDT FRI APR 29 2016

 **SATELLITE DATA USED TO AUGMENT SKY COVER AT AUTOMATED STATIONS**
 *****  WEATHER ACROSS EASTERN NORTH DAKOTA  *****

CITY           SKY/WX    TMP DP  RH WIND       PRES   REMARKS
GRAND FORKS    MOSUNNY   63  32  31 NE17G28   30.13F
GRAND FRKS AFB SUNNY     63  30  29 NE17G23   30.13F
DEVILS LAKE    SUNNY     59  29  31 E17G24    30.15F
FARGO          SUNNY     65  31  28 E10       30.09F
WAHPETON ARPT  MOCLDY    59  32  36 CALM      30.11F
$$

 ***** WEATHER ACROSS CENTRAL AND WESTERN NORTH DAKOTA  *****

CITY           SKY/WX    TMP DP  RH WIND       PRES   REMARKS
BISMARCK       SUNNY     61  34  36 E16G22    30.11F
MINOT          SUNNY     66  21  18 E14G21    30.13S
JAMESTOWN      SUNNY     61  32  33 E12G21    30.11F
MINOT AFB      SUNNY     61  22  22 E13       30.13R
GARRISON         N/A     61  22  22 E18       30.12S
WILLISTON      PTSUNNY   57  26  30 SE12      30.11F
DICKINSON      PTSUNNY   55  26  32 E12       30.08S
HETTINGER      CLOUDY    53  27  36 E13       30.11R
$$

 *****  OTHER AIRPORT OBSERVATIONS IN OUR AREA  *****

CITY           SKY/WX    TMP DP  RH WIND       PRES   REMARKS
WALHALLA       FAIR      63  30  29 NE13G20   30.17F
GRAFTON AIRPOR FAIR      61  32  33 E10G20    30.17F
VALLEY CITY AR FAIR      61  32  33 E13G23    30.13S
CANDO          FAIR      63  23  22 E13G18    30.18R
CAVALIER APRT  FAIR      61  32  33 NE8G21    30.17S
GWINNER        FAIR      63  36  36 E10       30.11F
SHEYENNE NWR     N/A     63  33  32 E9        29.95
ROLLA          FAIR      59  23  25 E14       30.18R
 ***** THE ABOVE OBSERVATIONS ARE NON NWS ARE NOT QUALITY
       CONTROLLED AND MAY MIS-REPORT RAIN FOR SNOW...
$$

  *****  WEATHER ACROSS NORTHERN MINNESOTA  *****

CITY           SKY/WX    TMP DP  RH WIND       PRES   REMARKS
FLAG ISLAND    SUNNY     54  30  40 N13       30.19F
WARROAD        SUNNY     55  36  47 NE9       30.21F
ROSEAU         SUNNY     57  36  44 E17G24    30.18F
HALLOCK        SUNNY     63  21  20 E10       30.16S
THF RVR FALLS  SUNNY     61  30  31 NE13G21   30.15S
BAUDETTE       SUNNY     58  32  37 N16       30.17F
WASKISH        SUNNY     61  34  36 NE10G17   30.15S
CROOKSTON      SUNNY     63  30  29 E14       30.13F
STEPHEN NDAWN    N/A     61  30  31 NE15        N/A
GREENBUSH NDAW   N/A     61  32  33 NE9         N/A
$$
  *****  WEATHER ACROSS CENTRAL AND WEST MINNESOTA  *****

CITY           SKY/WX    TMP DP  RH WIND       PRES   REMARKS
FOSSTON        SUNNY     61  30  31 NE12G20   30.13F
BEMIDJI        SUNNY     59  32  36 E10       30.12S
PARK RAPIDS    SUNNY     60  28  29 NE9G18    30.11R
ELBOW LAKE     CLOUDY    58  37  44 CALM      30.11F
WADENA         SUNNY     61  34  36 E8        30.09S
DETROIT LAKES  SUNNY     61  32  33 E8G18     30.10F
MOORHEAD       SUNNY     63  32  31 NE8G20    30.10F
FERGUS FALLS   MOSUNNY   61  36  39 CALM      30.08S
MORRIS MN      PTSUNNY   57  39  51 S5        30.11S
STAPLES        SUNNY     61  28  29 E8        30.10S
$$
  *****  WEATHER ELSEWHERE ACROSS MINNESOTA  *****

CITY           SKY/WX    TMP DP  RH WIND       PRES   REMARKS
DULUTH         MOSUNNY   51  30  44 E15       30.16S
INTRNTL FALLS  SUNNY     55  30  38 N8        30.18F
ELY            CLOUDY    48  28  46 NE5       30.18F
CLOQUET        SUNNY     52  27  37 E12G17    30.14F
WHEATON        PTSUNNY   61  39  44 SE8       30.12F
BRAINERD       SUNNY     59  31  34 E8        30.11S
HIBBING        SUNNY     55  30  38 NE9G18    30.13F
ALEXANDRIA     PTSUNNY   59  33  37 NE8       30.11S
SAINT CLOUD    SUNNY     58  32  37 E7        30.11F
MINNEAPOLIS    MOSUNNY   56  34  43 VRB3      30.12R
$$

  *****  WEATHER ACROSS SOUTH DAKOTA  *****

CITY           SKY/WX    TMP DP  RH WIND       PRES   REMARKS
SIOUX FALLS    CLOUDY    49  38  65 E9        30.12F
BROOKINGS      CLOUDY    49  38  65 SE10      30.12S
WATERTOWN      CLOUDY    52  37  56 SE7       30.11S
HURON          CLOUDY    51  39  63 SE13G23   30.12S
SISSETON         N/A     60  36  40 SE8       30.10F
ABERDEEN       CLOUDY    59  38  45 SE9       30.11S
MITCHELL       CLOUDY    51  42  71 SE14      30.11F
PIERRE         CLOUDY    50  39  66 SE14      30.08F
MOBRIDGE       PTSUNNY   59  37  44 SE13      30.07S
RAPID CITY     CLOUDY    44  34  67 E9        30.07F
$$

  *****  SOME WEATHER IN NEARBY STATES *****

CITY           SKY/WX    TMP DP  RH WIND       PRES   REMARKS
GLASGOW MT     CLOUDY    55  31  39 S15       30.07R
GREAT FALLS MT CLOUDY    51  28  41 N7        29.93S
CHEYENNE WY    SNOW      32  31  96 E10       29.93F VSB 1/2 WCI  24
SCOTTSBLUFF NE LGT RAIN  43  35  73 NE16      29.97S
OMAHA NE       CLOUDY    49  42  77 NE10      30.04F
DES MOINES IA  CLOUDY    51  41  68 NE10      30.05F
DAVENPORT IA   CLOUDY    50  41  71 NE8       30.10F
CHICAGO IL     PTSUNNY   50  39  66 NE13      30.10R
EAU CLAIRE WI  PTSUNNY   57  37  47 E9        30.11S
LA CROSSE WI   CLOUDY    54  38  54 N7        30.12S
$$

  *****  SOME NATIONAL WEATHER *****

CITY           SKY/WX    TMP DP  RH WIND       PRES   REMARKS
LA GUARDIA NY  CLOUDY    54  40  59 NE12      30.08F
RALEIGH NC     MOSUNNY   77  59  53 VRB7      29.94F
ATLANTA GA     CLOUDY    86  47  25 W5        29.95S
NEW ORLEANS LA MOSUNNY   85  71  63 S18G28    29.85F HX  90
OKLAHOMA CITY  CLOUDY    69  65  86 E9        29.60F
ALBUQUERQUE NM PTSUNNY   55  30  38 NW18G24   29.81F
SALT LAKE CITY PTSUNNY   57  35  43 CALM      29.85F
LOS ANGELES CA MOSUNNY   66  49  54 SW14      30.01F
BOISE ID       PTSUNNY   60  37  42 NW16      29.86F
SEATTLE WA     LGT RAIN  55  45  68 CALM      30.15R
$$

*** WEATHER ACROSS MANITOBA...SASKATCHEWAN AND ONTARIO ***
                ***ONTARIO***

CITY           SKY/WX    TMP DP  RH WIND       PRES   REMARKS
GERALDTON      CLOUDY    43  32  65 N10       30.21S
THUNDER BAY    PTSUNNY   54  30  40 E9        30.18S
SIOUX LOOKOUT  MOSUNNY   52  30  43 N6        30.22F
TORONTO        PTSUNNY   50  27  40 E8        30.06F
BIG TROUT LK   MOSUNNY   45  21  39 N10G18    30.29S
PICKLE LAKE    CLOUDY    46  23  39 NE7       30.24F
DRYDEN         MOSUNNY   52  28  40 NE8       30.21S
KENORA         MOSUNNY   55  28  35 E7        30.21S
$$
                *** MANITOBA***

CITY           SKY/WX    TMP DP  RH WIND       PRES   REMARKS
BRANDON        MOSUNNY   59  16  18 E14G21    30.20F
DAUPHIN        SUNNY     61  21  21 E13G20    30.24F
ISLAND LAKE    MOSUNNY   52  16  24 S6        30.32S
PILOT MOUND      N/A     59  18  20 NE12G20     N/A
THE PAS        CLOUDY    61  21  21 S15G22    30.27S
THOMPSON       PTSUNNY   57  23  26 SE5       30.26F
WINNIPEG       MOSUNNY   61  30  31 NE12      30.21F
LYNN LAKE      SUNNY     64  27  24 SW8       30.19S
CHURCHILL      SUNNY     34  23  64 E10       30.44F
GILLAM         MOSUNNY   46  21  36 NE10      30.35F
$$
                ***SASKATCHEWAN***

CITY           SKY/WX    TMP DP  RH WIND       PRES   REMARKS
ESTEVAN        PTSUNNY   63  18  17 E16G26    30.13F
KINDERSLEY     MOSUNNY   63  19  19 SE16G28   30.05S
LLOYDMINSTER   MOSUNNY   64  19  17 SE15G28   30.04F
PRINCE ALBERT  PTSUNNY   64  18  16 SE12G18   30.16F
REGINA         MOSUNNY   63  10  13 S17       30.13F
YORKTON        SUNNY     63  18  17 SE14      30.20F
N. BATTLEFORD  SUNNY     64  18  16 SE17G32   30.10F
LA RONGE       PTSUNNY   66  25  20 E9        30.15F
SASKATOON      SUNNY     64  16  15 SE21G31   30.14S
SWIFT CURRENT  PTSUNNY   59  21  23 S17G25    30.05F
$$
NOTE: THESE ARE AUTOMATED STATIONS WITH LIMITED QUALITY CONTROL
      "FAIR" INDICATES FEW OR NO CLOUDS BELOW 12,000 FEET WITH NO
      SIGNIFICANT WEATHER AND/OR OBSTRUCTIONS TO VISIBILITY.
      SKY/WX - SKY CONDITION AND SIGNIFICANT WEATHER.
      TMP - AIR TEMPERATURE.    DP   - DEWPOINT TEMPERATURE.
      RH  - RELATIVE HUMIDITY.  PRES - PRESSURE.
      HX  - HEAT INDEX.         WCI  - WIND CHILL INDEX.
$




USA.gov is the U.S. government's official web portal to all federal, state and local government web resources and services.